Location: Celina Division
(33.3022°N, 96.7580°W)
Time: 07:56:32
(UTC+00:00)

Meteor 1-25 Rocket - Visible Passes

Search period start: 26 June 2022 00:00
Search period end: 06 July 2022 00:00
Orbit: 838 x 890 km, 81.2° (Epoch: 26 June)

Date Brightness Start Highest point End Pass type
(mag) Time Alt. Az. Time Alt. Az. Time Alt. Az.
26 Jun 5.2 09:39:55 10° SSE 09:45:25 47° E 09:50:58 10° NNE visible
27 Jun 5.2 09:31:54 10° SSE 09:37:24 46° E 09:42:57 10° NNE visible
28 Jun 5.2 09:24:17 12° SSE 09:29:24 46° E 09:34:56 10° NNE visible
29 Jun 5.2 09:16:52 15° SSE 09:21:23 46° E 09:26:55 10° NNE visible
30 Jun 5.2 09:09:24 18° SSE 09:13:22 46° E 09:18:54 10° NNE visible
30 Jun 5.8 10:52:38 10° WSW 10:56:46 20° WNW 11:00:56 10° NNW visible
01 Jul 5.1 09:01:55 22° SSE 09:05:21 46° E 09:10:54 10° NNE visible
01 Jul 5.8 10:44:36 10° WSW 10:48:45 20° WNW 10:52:55 10° NNW visible
02 Jul 5.1 08:54:24 25° SSE 08:57:21 45° E 09:02:52 10° NNE visible
02 Jul 5.8 10:36:43 10° WSW 10:40:44 20° WNW 10:44:55 10° NNW visible
03 Jul 5.1 08:46:51 29° SE 08:49:20 45° E 08:54:52 10° NNE visible
03 Jul 5.8 10:29:10 12° WSW 10:32:43 20° WNW 10:36:55 10° NNW visible
04 Jul 5.1 08:39:16 33° SE 08:41:19 45° E 08:46:50 10° NNE visible
04 Jul 5.8 10:21:35 14° WSW 10:24:42 20° WNW 10:28:55 10° NNW visible
05 Jul 5.1 08:31:40 36° SE 08:33:19 45° E 08:38:50 10° NNE visible
05 Jul 5.8 10:13:59 15° WSW 10:16:42 20° WNW 10:20:54 10° NNW visible
